FW6455 Weather Reports


time (UTC)temp
C
wind
direction
speed
KPH
gust
KPH
rain 1hr
cm
rain 24hr
cm
rain mn
cm
humidity
%
barometer
mb
20260509135037 25 0 0.0 1.6 0.00 0.03 0.00 75 1011.7
20260509134553 25 299 0.0 1.6 0.00 0.03 0.00 76 1011.6
20260509134042 25 289 0.0 1.6 0.00 0.03 0.00 75 1011.6
20260509133539 26 311 0.0 3.2 0.00 0.03 0.00 74 1011.5
20260509133058 26 293 0.0 3.2 0.00 0.03 0.00 75 1011.4
20260509132540 26 334 0.0 1.6 0.00 0.03 0.00 76 1011.4
20260509132040 26 340 0.0 1.6 0.00 0.03 0.00 77 1011.4
20260509131557 26 0 0.0 1.6 0.00 0.03 0.00 78 1011.3
20260509131040 25 0 0.0 1.6 0.00 0.03 0.00 78 1011.3
20260509130540 25 0 0.0 1.6 0.00 0.03 0.00 79 1011.1
20260509130059 25 0 0.0 0.0 0.00 0.03 0.00 80 1011.2
20260509125539 25 0 0.0 0.0 0.00 0.03 0.00 81 1011.2
20260509125040 25 0 0.0 0.0 0.00 0.03 0.00 82 1011.1
20260509124603 24 0 0.0 0.0 0.00 0.03 0.00 83 1011.1
20260509124039 24 0 0.0 0.0 0.00 0.03 0.00 86 1011.2
20260509123539 23 0 0.0 0.0 0.00 0.03 0.00 87 1011.2
20260509123056 23 0 0.0 0.0 0.00 0.03 0.00 90 1011.1
20260509122538 22 0 0.0 0.0 0.00 0.03 0.00 90 1011.2
20260509122039 22 0 0.0 0.0 0.00 0.03 0.00 92 1011.0
20260509121559 21 0 0.0 0.0 0.00 0.03 0.00 92 1011.0
20260509121039 21 0 0.0 0.0 0.00 0.03 0.00 93 1011.0
20260509120541 21 0 0.0 0.0 0.00 0.03 0.00 93 1011.0
20260509120057 20 0 0.0 0.0 0.00 0.03 0.00 93 1011.1
20260509115538 20 0 0.0 1.6 0.00 0.03 0.00 93 1011.1
20260509115038 20 0 0.0 1.6 0.00 0.03 0.00 93 1011.1
20260509114553 20 0 0.0 0.0 0.00 0.03 0.00 93 1010.9
20260509114039 20 0 0.0 1.6 0.00 0.03 0.00 93 1010.8
20260509113541 21 0 0.0 1.6 0.00 0.03 0.00 93 1010.6
20260509113056 21 344 0.0 1.6 0.00 0.03 0.00 93 1010.7
20260509112541 21 0 0.0 0.0 0.00 0.03 0.00 93 1010.9
20260509112039 21 0 0.0 0.0 0.00 0.03 0.00 93 1010.9
20260509111559 21 0 0.0 0.0 0.00 0.03 0.00 93 1010.8
20260509111039 21 0 0.0 0.0 0.00 0.03 0.00 93 1010.8
20260509110544 21 0 0.0 1.6 0.00 0.03 0.00 94 1010.7
20260509110050 21 0 0.0 1.6 0.00 0.03 0.00 94 1010.6
20260509105542 21 0 0.0 1.6 0.00 0.03 0.00 94 1010.7
20260509105036 21 0 0.0 3.2 0.00 0.03 0.00 94 1010.6
20260509104549 21 0 0.0 3.2 0.00 0.03 0.00 94 1010.6
20260509104038 21 0 0.0 3.2 0.00 0.03 0.00 95 1010.6
20260509103538 21 299 0.0 1.6 0.00 0.03 0.00 95 1010.6
20260509103049 21 0 0.0 1.6 0.00 0.03 0.00 95 1010.5
20260509102539 20 308 0.0 1.6 0.00 0.03 0.00 95 1010.2
20260509102039 20 328 0.0 1.6 0.00 0.03 0.00 94 1009.4
20260509101550 20 0 0.0 1.6 0.00 0.03 0.00 94 1009.1
20260509101038 20 0 0.0 1.6 0.00 0.03 0.00 94 1009.0
20260509100538 20 0 0.0 1.6 0.00 0.03 0.00 94 1008.8
20260509100048 20 0 0.0 3.2 0.00 0.03 0.00 94 1008.8
20260509095539 20 173 0.0 3.2 0.00 0.03 0.00 94 1008.7
20260509095040 20 184 0.0 4.8 0.00 0.03 0.00 94 1008.6
20260509094550 20 216 0.0 4.8 0.00 0.03 0.00 94 1008.7
20260509094039 20 205 1.6 4.8 0.00 0.03 0.00 94 1008.3
20260509093538 20 193 0.0 3.2 0.00 0.03 0.00 94 1008.8
20260509093051 20 0 0.0 3.2 0.00 0.03 0.00 94 1009.1
20260509092539 20 0 0.0 3.2 0.00 0.03 0.00 94 1008.1
20260509092039 20 157 1.6 3.2 0.00 0.03 0.00 94 1008.0
20260509091548 20 158 0.0 3.2 0.00 0.03 0.00 94 1008.0
20260509091039 20 197 0.0 3.2 0.00 0.03 0.00 94 1008.5
20260509090540 20 193 0.0 1.6 0.00 0.03 0.00 94 1008.5
20260509090105 20 213 0.0 1.6 0.00 0.03 0.00 94 1008.5
20260509085539 20 169 0.0 1.6 0.00 0.03 0.00 94 1008.8
20260509085038 20 166 0.0 1.6 0.00 0.03 0.00 94 1009.2
20260509084558 20 166 0.0 1.6 0.00 0.03 0.00 93 1009.6
20260509084039 20 0 0.0 0.0 0.00 0.03 0.00 93 1009.9
20260509083538 20 0 0.0 0.0 0.00 0.03 0.00 93 1010.0
20260509083057 20 158 0.0 0.0 0.00 0.03 0.00 93 1010.1
20260509082539 20 0 0.0 0.0 0.00 0.03 0.00 93 1010.3
20260509082043 20 0 0.0 0.0 0.00 0.03 0.00 93 1010.5
20260509081554 20 0 0.0 0.0 0.00 0.03 0.00 93 1010.6
20260509081039 20 157 0.0 1.6 0.00 0.03 0.00 93 1010.8
20260509080538 20 157 0.0 1.6 0.00 0.03 0.00 93 1011.2
20260509080048 20 143 0.0 1.6 0.00 0.03 0.00 93 1011.5
20260509075539 20 0 0.0 0.0 0.00 0.03 0.00 93 1011.8
20260509075039 20 0 0.0 0.0 0.00 0.03 0.00 93 1011.9
20260509074549 20 0 0.0 0.0 0.00 0.03 0.00 93 1011.8
20260509074038 20 0 0.0 0.0 0.00 0.03 0.00 93 1011.7
20260509073538 20 0 0.0 0.0 0.00 0.03 0.00 93 1011.7
20260509073056 20 0 0.0 0.0 0.00 0.03 0.00 93 1011.8
20260509072542 20 0 0.0 0.0 0.00 0.03 0.00 93 1012.0
20260509072039 20 0 0.0 0.0 0.00 0.03 0.00 92 1011.9
20260509071551 20 0 0.0 0.0 0.00 0.03 0.00 92 1011.8
20260509071038 20 0 0.0 0.0 0.00 0.03 0.00 92 1011.9
20260509070539 20 0 0.0 0.0 0.00 0.03 0.00 92 1011.7
20260509070054 20 0 0.0 0.0 0.00 0.03 0.00 92 1011.8
20260509065538 20 0 0.0 0.0 0.00 0.03 0.00 92 1011.6
20260509065043 20 0 0.0 0.0 0.00 0.03 0.00 92 1011.7
20260509064549 20 0 0.0 0.0 0.00 0.03 0.00 92 1011.6
20260509064039 20 0 0.0 0.0 0.00 0.03 0.00 92 1011.7
20260509063538 20 0 0.0 0.0 0.00 0.03 0.00 92 1011.7
20260509063101 20 0 0.0 0.0 0.00 0.03 0.00 92 1011.8
20260509062539 20 0 0.0 0.0 0.00 0.03 0.00 92 1011.9
20260509062039 20 0 0.0 0.0 0.00 0.03 0.00 92 1011.9
20260509061553 20 0 0.0 0.0 0.00 0.03 0.00 92 1012.2
20260509061035 20 0 0.0 0.0 0.00 0.03 0.00 92 1012.2
20260509060539 20 0 0.0 0.0 0.00 0.03 0.00 91 1012.0
20260509055539 20 0 0.0 0.0 0.00 0.03 0.00 91 1012.0
20260509055038 20 0 0.0 0.0 0.00 0.03 0.00 91 1012.0
20260509054546 20 0 0.0 0.0 0.00 0.03 0.00 91 1011.7
20260509054038 20 0 0.0 0.0 0.00 0.03 0.00 91 1011.4
20260509053538 20 0 0.0 0.0 0.00 0.03 0.00 90 1011.3
20260509053129 20 0 0.0 0.0 0.00 0.03 0.00 90 1011.4
20260509052538 21 0 0.0 0.0 0.00 0.03 0.00 90 1011.4
20260509052038 21 0 0.0 0.0 0.00 0.03 0.00 89 1011.6
20260509051552 21 0 0.0 0.0 0.00 0.03 0.00 89 1011.6
20260509051039 21 0 0.0 0.0 0.00 0.03 0.00 89 1011.3
20260509050541 21 0 0.0 0.0 0.00 0.03 0.00 89 1011.2
20260509050050 21 0 0.0 0.0 0.00 0.03 0.00 89 1011.2
20260509045538 21 0 0.0 0.0 0.00 0.03 0.03 89 1011.3
20260509045038 21 0 0.0 0.0 0.00 0.03 0.03 89 1011.4
20260509044546 21 0 0.0 0.0 0.00 0.03 0.03 88 1011.4
20260509044039 21 0 0.0 0.0 0.00 0.03 0.03 88 1011.4
20260509043539 21 0 0.0 0.0 0.00 0.03 0.03 88 1011.7
20260509043105 21 0 0.0 0.0 0.00 0.03 0.03 88 1012.0
20260509042537 21 0 0.0 0.0 0.00 0.03 0.03 88 1011.9
20260509042040 21 0 0.0 0.0 0.00 0.03 0.03 88 1011.6
20260509041601 21 0 0.0 0.0 0.00 0.03 0.03 88 1011.4
20260509041038 22 0 0.0 0.0 0.00 0.03 0.03 87 1011.6
20260509040538 22 0 0.0 0.0 0.00 0.03 0.03 87 1011.5
20260509040104 22 0 0.0 0.0 0.00 0.03 0.03 87 1011.5
20260509035538 22 0 0.0 0.0 0.00 0.03 0.03 87 1011.6
20260509035037 22 0 0.0 0.0 0.00 0.03 0.03 87 1011.5
20260509034603 22 0 0.0 0.0 0.00 0.03 0.03 87 1011.5
20260509034037 22 0 0.0 0.0 0.00 0.03 0.03 87 1011.6
20260509033538 22 0 0.0 0.0 0.00 0.03 0.03 87 1011.6
20260509033053 22 0 0.0 0.0 0.00 0.03 0.03 87 1011.5
20260509032539 22 0 0.0 0.0 0.00 0.03 0.03 87 1011.4
20260509032038 22 0 0.0 0.0 0.00 0.03 0.03 87 1011.2
20260509031602 22 0 0.0 0.0 0.00 0.03 0.03 87 1011.2
20260509031037 22 0 0.0 0.0 0.00 0.03 0.03 86 1011.3
20260509030537 22 0 0.0 0.0 0.00 0.03 0.03 86 1011.3
20260509030052 22 0 0.0 0.0 0.00 0.03 0.03 86 1011.1
20260509025536 22 0 0.0 0.0 0.00 0.03 0.03 86 1011.0
20260509025038 22 0 0.0 0.0 0.00 0.03 0.03 86 1010.7
20260509024550 22 0 0.0 0.0 0.00 0.03 0.03 86 1010.7
20260509024041 22 0 0.0 0.0 0.00 0.03 0.03 86 1010.6
20260509023543 22 0 0.0 0.0 0.00 0.03 0.03 85 1010.6
20260509023054 22 0 0.0 0.0 0.00 0.03 0.03 85 1010.8
20260509022540 22 0 0.0 0.0 0.00 0.03 0.03 85 1010.8
20260509022039 22 0 0.0 0.0 0.00 0.03 0.03 85 1010.8
20260509021552 22 0 0.0 0.0 0.00 0.03 0.03 84 1010.7
20260509021044 22 0 0.0 0.0 0.00 0.03 0.03 84 1010.6
20260509020542 22 0 0.0 0.0 0.00 0.03 0.03 84 1010.6
20260509020056 22 0 0.0 0.0 0.00 0.03 0.03 84 1010.7
20260509015537 22 0 0.0 0.0 0.00 0.03 0.03 84 1010.5
20260509015042 22 0 0.0 0.0 0.00 0.03 0.03 84 1010.4
20260509014559 22 0 0.0 0.0 0.00 0.03 0.03 84 1010.5
20260509014038 22 0 0.0 0.0 0.00 0.03 0.03 84 1010.4
20260509013538 22 0 0.0 0.0 0.00 0.03 0.03 83 1010.3
20260509013107 22 0 0.0 0.0 0.00 0.03 0.03 84 1010.4
20260509012538 22 0 0.0 0.0 0.00 0.03 0.03 83 1010.4
20260509012041 22 0 0.0 0.0 0.00 0.03 0.03 83 1010.3
20260509011551 22 0 0.0 0.0 0.00 0.03 0.03 83 1010.2
20260509011040 22 0 0.0 0.0 0.00 0.03 0.03 83 1010.1
20260509010543 22 0 0.0 0.0 0.00 0.03 0.03 82 1010.1
20260509010055 22 0 0.0 0.0 0.00 0.03 0.03 82 1009.9
20260509005541 22 0 0.0 0.0 0.00 0.03 0.03 82 1009.9
20260509005042 22 0 0.0 0.0 0.00 0.03 0.03 82 1009.8
20260509004552 22 0 0.0 0.0 0.00 0.03 0.03 81 1009.5
20260509004038 22 0 0.0 0.0 0.00 0.03 0.03 81 1009.3
20260509003541 23 0 0.0 0.0 0.00 0.03 0.03 81 1009.3
20260509003052 23 0 0.0 0.0 0.00 0.03 0.03 81 1009.4
20260509002544 23 0 0.0 1.6 0.00 0.03 0.03 81 1009.4
20260509002037 23 0 0.0 1.6 0.00 0.03 0.03 80 1009.6
20260509001552 23 0 0.0 1.6 0.00 0.03 0.03 80 1009.8
20260509001040 23 0 0.0 1.6 0.00 0.03 0.03 80 1009.9
20260509000538 23 0 0.0 1.6 0.00 0.03 0.03 80 1009.8
20260509000052 23 0 0.0 1.6 0.00 0.03 0.03 80 1009.8
20260508235538 23 0 0.0 1.6 0.00 0.03 0.03 80 1010.0
20260508235038 23 0 0.0 1.6 0.00 0.03 0.03 80 1009.9
20260508234552 23 0 0.0 1.6 0.00 0.03 0.03 80 1009.9
20260508234038 23 0 0.0 1.6 0.00 0.03 0.03 79 1010.0
20260508233542 23 157 0.0 1.6 0.00 0.03 0.03 80 1010.0
20260508233110 23 0 0.0 1.6 0.00 0.03 0.03 79 1009.8
20260508232540 23 203 0.0 1.6 0.00 0.03 0.03 79 1010.0
20260508232040 23 203 0.0 1.6 0.00 0.03 0.03 80 1009.9
20260508231551 23 0 0.0 1.6 0.00 0.03 0.03 80 1010.0
20260508231041 23 0 0.0 3.2 0.00 0.03 0.03 79 1009.9
20260508230538 23 0 0.0 3.2 0.00 0.03 0.03 79 1009.9
20260508230058 23 103 0.0 1.6 0.00 0.03 0.03 80 1010.0
20260508225540 23 0 0.0 3.2 0.00 0.03 0.03 80 1009.9
20260508225041 22 0 0.0 3.2 0.00 0.03 0.03 80 1009.9
20260508224550 22 122 0.0 1.6 0.00 0.03 0.03 80 1010.0
20260508224041 22 0 0.0 1.6 0.00 0.03 0.03 79 1010.1
20260508223540 22 0 0.0 1.6 0.00 0.03 0.03 79 1010.1
20260508223050 22 0 0.0 1.6 0.00 0.03 0.03 80 1010.1
20260508222538 22 0 0.0 3.2 0.00 0.03 0.03 80 1010.1
20260508222044 22 148 0.0 3.2 0.00 0.03 0.03 80 1010.2
20260508221552 22 94 0.0 1.6 0.00 0.03 0.03 80 1010.2
20260508221042 22 188 0.0 1.6 0.00 0.03 0.03 80 1010.2
20260508220542 22 217 0.0 1.6 0.00 0.03 0.03 81 1010.3
20260508220048 22 0 0.0 1.6 0.00 0.03 0.03 81 1010.3
20260508215540 21 0 0.0 1.6 0.03 0.03 0.03 82 1010.5
20260508215038 21 188 0.0 1.6 0.03 0.03 0.03 82 1010.4
20260508214551 21 278 0.0 3.2 0.03 0.03 0.03 82 1010.7
20260508214041 21 0 0.0 3.2 0.03 0.03 0.03 83 1010.8
20260508213537 21 0 0.0 1.6 0.03 0.03 0.03 82 1010.8
20260508213052 21 280 0.0 1.6 0.03 0.03 0.03 83 1011.0
20260508212540 21 0 0.0 3.2 0.03 0.03 0.03 87 1010.6
20260508212040 20 150 0.0 3.2 0.03 0.03 0.03 86 1010.1
20260508211552 20 198 0.0 6.4 0.03 0.03 0.03 84 1009.9
20260508211043 20 0 0.0 6.4 0.03 0.03 0.03 83 1009.8
20260508210544 21 110 1.6 4.8 0.03 0.03 0.03 81 1009.3
20260508210051 21 104 1.6 4.8 0.03 0.03 0.03 78 1010.3
20260508205538 21 110 0.0 1.6 0.00 0.00 0.00 75 1011.9
20260508205040 22 0 0.0 1.6 0.00 0.00 0.00 74 1012.4
20260508204548 22 193 0.0 1.6 0.00 0.00 0.00 73 1012.4
20260508204038 22 193 0.0 1.6 0.00 0.00 0.00 72 1012.6
20260508203538 22 0 0.0 1.6 0.00 0.00 0.00 71 1012.7
20260508203102 22 0 0.0 1.6 0.00 0.00 0.00 72 1012.4
20260508202539 22 195 0.0 1.6 0.00 0.00 0.00 72 1012.2
20260508202038 22 0 0.0 1.6 0.00 0.00 0.00 71 1012.5
20260508201556 22 0 0.0 3.2 0.00 0.00 0.00 71 1012.6
20260508201039 23 215 0.0 3.2 0.00 0.00 0.00 71 1012.6
20260508200538 23 206 0.0 1.6 0.00 0.00 0.00 70 1012.5
20260508200100 23 207 0.0 1.6 0.00 0.00 0.00 71 1012.4
20260508195539 23 192 0.0 3.2 0.00 0.00 0.00 71 1012.4
20260508195039 23 0 0.0 3.2 0.00 0.00 0.00 69 1012.4
20260508194556 23 0 0.0 3.2 0.00 0.00 0.00 69 1012.4
20260508194042 23 0 0.0 3.2 0.00 0.00 0.00 71 1012.3
20260508193540 23 210 0.0 3.2 0.00 0.00 0.00 71 1012.3
20260508193058 22 207 0.0 3.2 0.00 0.00 0.00 71 1012.4
20260508192540 22 143 0.0 3.2 0.00 0.00 0.00 71 1012.5
20260508192038 22 0 0.0 1.6 0.00 0.00 0.00 71 1012.7
20260508191600 22 0 0.0 3.2 0.00 0.00 0.00 71 1012.6
20260508191038 23 187 0.0 3.2 0.00 0.00 0.00 71 1012.8
20260508190540 23 162 0.0 3.2 0.00 0.00 0.00 71 1012.8
20260508190054 23 195 1.6 3.2 0.00 0.00 0.00 71 1012.9
20260508185540 23 0 0.0 3.2 0.00 0.00 0.00 70 1012.9
20260508185040 23 197 0.0 3.2 0.00 0.00 0.00 71 1013.0
20260508184555 23 0 0.0 3.2 0.00 0.00 0.00 71 1013.1
20260508184040 23 215 0.0 3.2 0.00 0.00 0.00 71 1013.2
20260508183540 23 0 0.0 3.2 0.00 0.00 0.00 71 1013.1
20260508183053 23 191 0.0 3.2 0.00 0.00 0.00 69 1013.3
20260508182539 23 167 0.0 3.2 0.00 0.00 0.00 69 1013.3
20260508182041 23 212 0.0 3.2 0.00 0.00 0.00 71 1013.4
20260508181558 23 0 0.0 3.2 0.00 0.00 0.00 69 1013.4
20260508181040 23 183 0.0 3.2 0.00 0.00 0.00 69 1013.5
20260508180540 23 198 0.0 1.6 0.00 0.00 0.00 70 1013.4
20260508180054 23 0 0.0 3.2 0.00 0.00 0.00 69 1013.5
20260508175542 23 0 0.0 3.2 0.00 0.00 0.00 69 1013.6
20260508175038 23 0 0.0 3.2 0.00 0.00 0.00 69 1013.9
20260508174557 23 205 0.0 3.2 0.00 0.00 0.00 68 1013.8
20260508174041 23 175 0.0 4.8 0.00 0.00 0.00 67 1013.8
20260508173540 23 167 1.6 4.8 0.00 0.00 0.00 67 1013.9
20260508173052 23 140 1.6 4.8 0.00 0.00 0.00 67 1013.9
20260508172538 23 78 0.0 6.4 0.00 0.00 0.00 68 1014.0
20260508172040 23 147 0.0 6.4 0.00 0.00 0.00 68 1014.2
20260508171605 23 63 0.0 3.2 0.00 0.00 0.00 70 1014.2
20260508171037 22 184 0.0 4.8 0.00 0.00 0.00 70 1014.3
20260508170545 22 0 1.6 4.8 0.00 0.00 0.00 69 1014.4
20260508170058 22 191 1.6 4.8 0.00 0.00 0.00 70 1014.3
20260508165539 22 158 0.0 4.8 0.00 0.00 0.00 71 1014.3
20260508165038 22 0 1.6 4.8 0.00 0.00 0.00 71 1014.5
20260508164550 21 120 0.0 3.2 0.00 0.00 0.00 73 1014.6
20260508164039 21 127 1.6 3.2 0.00 0.00 0.00 71 1014.9
20260508163539 21 158 0.0 1.6 0.00 0.00 0.00 71 1015.1
20260508163051 21 0 0.0 1.6 0.00 0.00 0.00 73 1015.2
20260508162539 21 0 0.0 1.6 0.00 0.00 0.00 72 1015.3
20260508162038 21 0 0.0 1.6 0.00 0.00 0.00 73 1015.4
20260508161552 21 98 0.0 3.2 0.00 0.00 0.00 73 1015.3
20260508161038 21 0 0.0 3.2 0.00 0.00 0.00 73 1015.4
20260508160538 20 201 0.0 3.2 0.00 0.00 0.00 74 1015.4
20260508160056 20 0 0.0 1.6 0.00 0.00 0.00 75 1015.5
20260508155542 20 0 0.0 1.6 0.00 0.00 0.00 75 1015.5
20260508155039 20 185 0.0 1.6 0.00 0.00 0.00 75 1015.7
20260508154552 20 0 0.0 1.6 0.00 0.00 0.00 74 1015.6
20260508154039 20 0 0.0 1.6 0.00 0.00 0.00 74 1015.7
20260508153540 20 0 0.0 0.0 0.00 0.00 0.00 74 1015.7
20260508153051 20 0 0.0 0.0 0.00 0.00 0.00 74 1015.7
20260508152541 20 0 0.0 0.0 0.00 0.00 0.00 74 1015.8
20260508152038 20 0 0.0 1.6 0.00 0.00 0.00 75 1016.0
20260508151555 20 0 0.0 1.6 0.00 0.00 0.00 75 1015.9
20260508151039 20 0 0.0 1.6 0.00 0.00 0.00 74 1016.0
20260508150539 20 210 0.0 3.2 0.00 0.00 0.00 75 1015.9
20260508150050 20 0 0.0 3.2 0.00 0.00 0.00 74 1015.9
20260508145544 20 105 0.0 3.2 0.00 0.00 0.00 74 1015.9
20260508145039 20 0 0.0 3.2 0.00 0.00 0.00 74 1015.9
20260508144550 20 204 0.0 3.2 0.00 0.00 0.00 73 1016.0
20260508144039 20 203 0.0 6.4 0.00 0.00 0.00 73 1016.0
20260508143540 19 0 1.6 6.4 0.00 0.00 0.00 74 1016.0
20260508143103 19 0 1.6 6.4 0.00 0.00 0.00 73 1015.9
20260508142540 20 193 0.0 6.4 0.00 0.00 0.00 74 1016.1
20260508142040 19 0 1.6 6.4 0.00 0.00 0.00 74 1016.0
20260508141553 19 190 0.0 6.4 0.00 0.00 0.00 75 1015.9
20260508141039 19 56 1.6 4.8 0.00 0.00 0.00 75 1016.1
20260508140539 18 106 0.0 8.0 0.00 0.00 0.00 76 1016.2
20260508140059 18 0 1.6 8.0 0.00 0.00 0.00 75 1016.1
20260508135536 19 89 1.6 8.0 0.00 0.00 0.00 75 1016.2